www.pogodaiklimat.ru

Погода и климат >> Архив погоды >> Вануату >> Уайт Грасс


ПОГОДА в Уайт Грасс

  • Прогноз погоды в Уайт Грасс
  • Монитор погоды в Уайт Грасс

АРХИВ ПОГОДЫ в Уайт Грасс

Время (UTC), дата Ветер
(напр.,м/с)
 
Видим.   Явления Облачность Т
(С)
Тd
(С)
f
(%)
Тe
(С)
Тes
(С)
Комфортность P
(гПа)
Po
(гПа)
Тmin
(С)
Tmax
(С)
R
(мм)
R24
(мм)
S
(см)
21 12.01 Ю 2 20 км 9/4 660 м
[Cu Sc Ci sp]
+28.0 +24.9 83 +40 +44 очень
душно
1005.3 1005.0
00 13.01 ЮЗ 3 20 км 9/5 600 м
[Cu Sc Ci sp]
+29.4 +25.6 80 +43 +51 опасность
перегрева
1005.3 1005.0 +23.0 0.1
03 13.01 ЮЗ 2 20 км 9/6 600 м
[Cu Sc Ac As]
+29.0 +26.2 85 +44 +47 опасность
перегрева
1004.0 1004.0
06 13.01 ЮЗ 2 20 км 8/4 660 м
[Cu Sc Ac trans Ci fib]
+28.2 +25.4 85 +41 +42 опасность
перегрева
1003.1 1003.0
21 13.01 штиль 0 20 км 8/8 660 м
[Cu Sc Ci fib]
+27.5 +25.5 89 +40 +43 очень
душно
1005.3 1005.0
00 14.01 штиль 0 20 км слаб. ливневой дождь 9/9 600 м
[Cu Sc]
+27.7 +26.0 90 +41 +44 опасность
перегрева
1004.8 1005.0 +23.5 10
03 14.01 ЮВ 5 20 км {ливн. осадки} 8/8 750 м
[Cu Sc]
+28.0 +25.2 85 +41 +42 опасность
перегрева
1004.2 1004.0
06 14.01 ЮВ 5 20 км {ливн. осадки} 8/8 660 м
[Cu Sc]
+28.0 +24.4 81 +39 +40 очень
душно
1004.2 1004.0 2
09 14.01 штиль 0 20 км 4/4 750 м
[Cu hum]
+26.0 +23.8 88 +36 +36 очень
душно
1006.2 1006.0
12 14.01 штиль 0 20 км слаб. ливневой дождь 10/10 600 м
[Cu Sc]
+25.0 +24.3 96 +35 +35 очень
душно
1007.0 1007.0 +29.4 2
15 14.01 штиль 0 20 км в посл. час ливневой дождь 4/4 660 м
[Cu Sc]
+25.0 +24.1 95 +34 +34 очень
душно
1004.9 1005.0
18 14.01 штиль 0 20 км в посл. час ливневой дождь 8/8 600 м
[Cu Sc]
+25.0 +24.3 96 +35 +35 очень
душно
1005.8 1006.0 0.4
21 14.01 ЮВ 3 20 км {ливн. осадки} 6/6 750 м
[Cu med, cong]
+27.7 +25.3 87 +40 +43 очень
душно
1006.7 1007.0
00 15.01 Ю 5 20 км {ливн. осадки} 5/5 750 м
[Cu med, cong Ci sp]
+29.0 +24.3 76 +41 +46 опасность
перегрева
1006.3 1006.0 +20.0 4
03 15.01 Ю 5 20 км {ливн. осадки} 5/5 750 м
[Cu med, cong Ci sp]
+29.0 +24.3 76 +41 +45 опасность
перегрева
1006.3 1006.0 +20.0 4
09 15.01 штиль 0 20 км 1/1 660 м
[Cu hum]
+26.0 +23.8 88 +36 +36 очень
душно
1007.7 1008.0
12 15.01 штиль 0 20 км 1/1 660 м
[Cu hum]
+25.0 +23.5 91 +34 +34 очень
душно
1008.0 1008.0 +30.0
15 15.01 штиль 0 20 км 1/1 660 м
[Cu hum]
+25.0 +23.5 91 +34 +34 очень
душно
1008.0 1008.0 +30.0
18 15.01 штиль 0 20 км 4/4 660 м
[Cu Sc]
+24.7 +23.7 94 +34 +34 очень
душно
1005.9 1006.0
21 15.01 штиль 0 20 км 4/4 660 м
[Cu Sc]
+24.7 +23.7 94 +34 +40 очень
душно
1005.9 1006.0
00 16.01 ЮВ 5 20 км 6/6 750 м
[Cu med, cong]
+29.0 +24.8 78 +41 +46 опасность
перегрева
1007.2 1007.0 +24.0
03 16.01 ЮВ 5 20 км 6/6 750 м
[Cu med, cong]
+29.0 +24.8 78 +41 +45 опасность
перегрева
1007.2 1007.0 +24.0
06 16.01 ЮВ 3 20 км в посл. час ливневой дождь 9/9 600 м
[Cu Sc]
+26.5 +24.8 90 +38 +38 очень
душно
1006.1 1006.0
09 16.01 штиль 0 20 км в посл. час ливневой дождь 8/8 600 м
[Cu Sc]
+25.5 +24.0 91 +35 +35 очень
душно
1008.6 1009.0
12 16.01 штиль 0 20 км {ливн. осадки} 10/10 600 м
[Cu Sc]
+25.3 +24.6 96 +36 +36 очень
душно
1009.0 1009.0 +29.2
15 16.01 штиль 0 20 км {ливн. осадки} 3/3 660 м
[Cu hum]
+24.0 +23.3 96 +32 +32 очень
душно
1007.1 1007.0
18 16.01 штиль 0 20 км 8/8 600 м
[Cu Sc]
+23.5 +23.5 100 +32 +32 очень
душно
1007.2 1007.0
21 16.01 ЮВ 3 20 км 9/9 600 м
[Cu Sc]
+27.4 +24.4 84 +39 +39 очень
душно
1008.6 1009.0
00 17.01 В 5 20 км 6/6 750 м
[Cu med, cong]
+29.0 +24.0 74 +40 +44 очень
душно
1008.5 1009.0 +23.0
03 17.01 ЮВ 6 20 км 8/8 750 м
[Cu med, cong]
+30.5 +24.9 72 +44 +45 опасность
перегрева
1006.9 1007.0
06 17.01 ЮВ 4 20 км 8/8 660 м
[Cu med, cong]
+28.5 +24.2 78 +40 +40 очень
душно
1006.5 1007.0
09 17.01 штиль 0 20 км 4/4 660 м
[Cu hum]
+26.0 +23.1 84 +35 +35 очень
душно
1009.3 1009.0
12 17.01 штиль 0 20 км 4/4 660 м
[Cu Sc]
+23.5 +22.8 96 +31 +31 очень
душно
1009.9 1010.0 +30.5
15 17.01 штиль 0 20 км 1/1 750 м
[Cu hum]
+23.0 +22.3 96 +31 +31 очень
душно
1008.3 1008.0
18 17.01 штиль 0 20 км 1/1 750 м
[Cu hum]
+22.2 +21.4 95 +29 +29 очень
душно
1008.8 1009.0
21 17.01 штиль 0 20 км 1/1 750 м
[Cu hum]
+22.2 +21.4 95 +29 +39 очень
душно
1008.8 1009.0
00 18.01 ЮВ 3 20 км 4/4 750 м
[Cu med, cong]
+28.5 +22.2 69 +37 +48 очень
душно
1009.7 1010.0 +21.5
03 18.01 ЮВ 3 20 км 6/6 600 м
[Cu med, cong]
+29.5 +23.8 71 +40 +46 очень
душно
1008.1 1008.0
06 18.01 ЮВ 3 20 км 6/6 660 м
[Cu med, cong]
+29.0 +21.6 64 +37 +37 очень
душно
1007.9 1008.0
09 18.01 штиль 0 20 км 1/1 750 м
[Cu hum]
+23.0 +22.3 96 +31 +31 очень
душно
1010.1 1010.0
12 18.01 штиль 0 20 км 1/1 750 м
[Cu hum]
+22.0 +20.2 90 +28 +28 душно 1011.2 1011.0 +30.5
15 18.01 штиль 0 20 км 1/1 750 м
[Cu hum]
+22.0 +20.5 91 +28 +28 душно 1008.6 1009.0
18 18.01 штиль 0 20 км 4/4 660 м
[Cu hum]
+21.5 +20.7 95 +27 +27 душно 1008.8 1009.0
21 18.01 ЮВ 3 20 км 6/6 750 м
[Cu hum]
+27.5 +23.2 77 +37 +40 очень
душно
1010.0 1010.0
00 19.01 20 км н/о +29.5 +23.0 68 +39 +44 очень
душно
1009.1 1009.0 +20.5
03 19.01 Ю 5 20 км 6/6 750 м
[Cu med, cong]
+30.0 +23.5 68 +41 +44 опасность
перегрева
1007.8 1008.0
06 19.01 В 4 20 км 5/5 750 м
[Cu med, cong]
+29.5 +23.0 68 +39 +40 очень
душно
1007.1 1007.0
09 19.01 штиль 0 20 км 3/3 750 м
[Cu hum]
+26.5 +23.6 84 +36 +36 очень
душно
1009.1 1009.0
12 19.01 штиль 0 20 км 6/6 750 м
[Cu hum]
+25.5 +24.1 92 +35 +35 очень
душно
1009.8 1010.0 +30.5

 

Местоположение метеостанции Уайт Грасс (Вануату): широта -19.45 долгота 169.21 высота над уровнем моря 8 м.

В архиве по умолчанию представлена погода в Уайт Грасс за последнюю неделю. Архивные данные за месяц целиком и за предыдущие месяцы, начиная с января 2011 года, Вы можете получить, выбрав интересующий диапазон дат из раскрывающегося списка и нажав кнопку "Ввод!".


*Определитесь, кто Вы:
робот инопланетянин человек

Внимание! Время в таблицах - всемирное. Для получения местного времени необходимо прибавить поправку, которая равна 11 ч.

Смотрите также архив погоды в соседних городах и на ближайших метеорологических станциях:

Погода на Эроманге (Вануату) (85 км)
Погода в Анейтьюме (Вануату) (104 км)
Погода в Порт-Виле (Вануату) (217 км)
Погода на Острове Лифу (Новая Каледония) (253 км)
Погода в Ла Рош (Новая Каледония) (257 км)
Погода на Острове Увеа (Новая Каледония) (305 км)
Погода в Ламапе (Вануату) (370 км)
Погода на Острове Пен (Новая Каледония) (395 км)
Погода в Ла Тонтута (Новая Каледония) (422 км)
Погода в Нумеа (Новая Каледония) (424 км)

Пояснения к столбцам:

Ветер - указаны скорость ветра в м/с - средняя за 10 мин, порывы в срок и между сроками (в фигурных скобках) и направление, откуда дует ветер: С - северный, СВ - северо-восточный, В - восточный, ЮВ - юго-восточный, Ю - южный, ЮЗ - юго-западный, З - западный, СЗ - северо-западный.
Видимость - горизонтальная дальность видимости в метрах или километрах. При видимости от 1 до 10 км при отсутствии осадков обычно наблюдается дымка, при ухудшении видимости до 1 км и менее - туман. В сухую погоду видимость может ухудшаться дымом, пылью или мглою.
Явления - указаны атмосферные явления, наблюдавшиеся в срок или в последний час перед сроком; фигурными скобками обозначены явления, наблюдавшиеся между сроками (за 1-3 часа до срока); квадратными скобками обозначены град или гололедные отложения с указанием их диаметра в мм.
Облачность - указаны через наклонную черту общая и нижняя облачность в баллах и высота нижней границы облаков в метрах; квадратными скобками обозначены формы облаков: Ci - перистые, Cs - перисто-слоистые, Cc - перисто-кучевые, Ac - высококучевые, As - высокослоистые, Sc - слоисто-кучевые, Ns - слоисто-дождевые, Cu - кучевые, Cb - кучево-дождевые. Подробнее классификацию облаков см. в Атласе облаков (PDF).
T - Температура воздуха - температура, измеренная на высоте 2 м над землей.
Td - Температура точки росы - температура, при понижении до которой содержащийся в воздухе водяной пар достигнет насыщения.
f - Относительная влажность воздуха - влажноcть воздуха, измеренная на высоте 2 м над землей.
Te - Эффективная температура - температура, которую ощущает одетый по сезону человек в тени. Характеристика душности погоды. При расчете учитывается влияние влажности воздуха и скорости ветра на теплоощущения человека.
Tes - Эффективная температура на солнце - температура, которую ощущает человек, с поправкой на солнечный нагрев. Характеристика знойности погоды. Зависит от высоты солнца над горизонтом, облачности и скорости ветра. Ночью, в пасмурную погоду, а также при ветре 12 м/с и более поправка равна нулю.
P - Атмосферное давление - приведенное к уровню моря атмосферное давление.
Po - Атмосферное давление - измеренное на уровне метеостанции атмосферное давление.
Tmin - Минимальная температура - минимум температуры воздуха на высоте 2 м над землей.
Tmax - Максимальная температура - максимум температуры воздуха на высоте 2 м над землей.
R - Количество осадков - Количество выпавших осадков за период времени, мм. При наведении курсора мыши на число - период времени, за который выпало указанное количество осадков.
R24 - Количество осадков - Количество выпавших осадков за 24 часа, мм.
S - Снежный покров - Высота снежного покрова, см. При наведении курсора мыши на число - состояние снежного покрова и степень покрытия местности в баллах.